User: anonymous
Location: Unspecified
(0.0000°N, 0.0000°E)
Time: 15:26:04
(UTC+00:00)
Language:

STSS ATRR (USA 205) - Orbit

View from above orbital plane
View from above orbital plane
View from above satellite
View from above satellite

Ground track
Ground track

The orbit data is extracted from the following two-line orbital elements,

1 34903U 09023A   14084.88460280 0.00000100  00000-0  60261-4 0    09
2 34903  98.9260 183.2569 0011000  28.6162 331.3836 14.06702987    07
Epoch (UTC): 25 March 2014 21:13:49
Eccentricity: 0.0011000
inclination: 98.9260°
perigee height: 863 km
apogee height: 878 km
right ascension of ascending node: 183.2569°
argument of perigee: 28.6162°
revolutions per day: 14.06702987
mean anomaly at epoch: 331.3836°
orbit number at epoch: 0

The dashed part of the orbit path shows where the satellite is in the earth's shadow,  

DLR